Home   Weather   Göttingen   Past weeks

Flag for Germany Past Weather in Göttingen, Lower Saxony, Germany — Yesterday and Last 2 Weeks

Now
64 °F

Broken clouds.


Feels Like: 64 °F
Forecast: 53 / 70 °F
Wind: 2 mph from North

Location: Kassel / Calden

Current Time: Jul 27, 2017 at 8:57:26 pm

Latest Report: Jul 27, 2017 at 8:20 pm


Visibility: N/A

Pressure: 29.74 "Hg

Humidity: 83%

Dew Point: 59 °F

Location of GöttingenLocation

Past Weather in Göttingen — Graph

°F

Göttingen Temperature Yesterday

Maximum temperature yesterday: 66 °F (at 7:20 pm)
Minimum temperature yesterday: 55 °F (at 12:20 am)
Average temperature yesterday: 59 °F

High & Low Weather Summary for the Past Weeks

 TemperatureHumidityPressure
High90 °F (Jul 19, 4:20 pm)100% (Jul 12, 7:20 pm)30.24 "Hg (Jul 12, 7:20 pm)
Low48 °F (Jul 13, 2:20 am)38% (Jul 19, 4:20 pm)29.65 "Hg (Jul 25, 7:20 pm)
Average63 °F80%29.96 "Hg
* Reported Jul 12 7:20 pm — Jul 27 7:20 pm, Göttingen. Weather by CustomWeather, © 2017

Note: Actual official high and low records may vary slightly from our data, if they occured in-between our weather recording intervals... More about our weather records

Advertising

Göttingen Weather History for the Previous 24 Hours

Scroll right to see more
 ConditionsComfort  
Time TempWeatherWind HumidityBarometerVisibility
7:20 pm
Thu, Jul 27
68 °FPartly sunny.5 mph69%29.74 "HgN/A
6:50 pm68 °FPassing clouds.6 mph69%29.74 "HgN/A
6:20 pm68 °FPassing clouds.3 mph69%29.74 "HgN/A
5:50 pm66 °FOvercast.5 mph68%29.77 "HgN/A
5:20 pm66 °FPartly sunny.7 mph73%29.77 "HgN/A
4:50 pm68 °FBroken clouds.9 mph69%29.77 "HgN/A
4:20 pm68 °FScattered clouds.8 mph83%29.74 "HgN/A
3:50 pm68 °FPartly sunny.8 mph78%29.74 "HgN/A
3:20 pm66 °FRain showers. Broken clouds.14 mph78%29.74 "HgN/A
2:50 pm70 °FPartly sunny.7 mph73%29.74 "HgN/A
2:20 pm70 °FPartly sunny.3 mph69%29.74 "HgN/A
1:50 pm68 °FBroken clouds.7 mph78%29.77 "HgN/A
1:20 pm68 °FBroken clouds.8 mph78%29.77 "HgN/A
12:50 pm68 °FBroken clouds.8 mph78%29.77 "HgN/A
12:20 pm68 °FBroken clouds.7 mph83%29.77 "HgN/A
11:50 am66 °FBroken clouds.8 mph83%29.77 "HgN/A
11:20 am64 °FBroken clouds.8 mph88%29.77 "HgN/A
10:50 am64 °FBroken clouds.7 mph94%29.77 "HgN/A
10:20 am63 °FBroken clouds.8 mph100%29.77 "HgN/A
9:20 am61 °FBroken clouds.6 mph100%29.77 "HgN/A
8:50 am59 °FBroken clouds.7 mph100%29.77 "HgN/A
8:20 am59 °FPartly sunny.6 mph100%29.77 "HgN/A
7:50 am57 °FPartly sunny.5 mph100%29.77 "Hg5 mi
7:20 am57 °FPartly sunny.6 mph100%29.77 "Hg5 mi
5:50 am55 °FDrizzle. Mostly cloudy.3 mph100%29.77 "Hg3 mi
5:20 am55 °FDrizzle. Mostly cloudy.2 mph100%29.77 "Hg4 mi
3:20 am55 °FPassing clouds.5 mph100%29.77 "Hg6 mi
12:20 am54 °FClear.2 mph100%29.80 "Hg10 mi
11:50 pm
Wed, Jul 26
55 °FPassing clouds.6 mph100%29.83 "HgN/A
11:20 pm55 °FClear.2 mph100%29.83 "Hg10 mi
9:20 pm59 °FClear.5 mph100%29.80 "Hg10 mi
8:50 pm63 °FSunny.3 mph88%29.80 "Hg10 mi
8:20 pm63 °FPassing clouds.3 mph94%29.80 "HgN/A
Weather by CustomWeather, © 2017

See weather overviewHow to use our weather pages